Weather History for KIOB - March, 2013

Change the Weather History Date:

Tuesday, March 5, 2013

  Actual Average Record
Temperature  
Mean Temperature 38 °F -  
Max Temperature 44 °F 56 °F 44 °F (2013)
Min Temperature 30 °F 34 °F 0 °F (2015)
Degree Days  
Heating Degree Days 27    
Moisture  
Dew Point 34 °F    
Average Humidity 85    
Maximum Humidity 100    
Minimum Humidity 56    
Precipitation  
Precipitation 0.00 in - - ()
Sea Level Pressure  
Sea Level Pressure 29.78 in    
Wind  
Wind Speed 8 mph (SE)    
Max Wind Speed 24 mph    
Max Gust Speed 41 mph    
Visibility 7 miles    
Events Rain , Snow    
Averages and records for this station are not official NWS values.
T = Trace of Precipitation, MM = Missing Value Source: NWS Daily Summary

Daily Weather History Graph

Daily Weather History Graph

Search for Another Location

Airport or City:

Trip Planner

Search our weather history database for the weather conditions in past years. The results will help you decide how hot, cold, wet, or windy it might be!

Date:

Astronomy

Mar. 05, 2013 Rise Set
Actual Time 7:01 AM EST 6:33 PM EST
Civil Twilight 6:35 AM EST 6:59 PM EST
Nautical Twilight 6:04 AM EST 7:30 PM EST
Astronomical Twilight 5:34 AM EST 8:01 PM EST
Moon 2:08 AM EST (3/5) 12:15 PM EST (3/5)
Length of Visible Light 12h 24m
Length of Day
11h 32m
Last Quarter, 41% of the Moon is Illuminated
Mar 5
Last Quarter
Mar 11
New
Mar 19
First Quarter
Mar 27
Full
Apr 3
Last Quarter

Hourly Weather History & Observations

Time (EST) Temp. Windchill Dew Point Humidity Pressure Visibility Wind Dir Wind Speed Gust Speed Precip Events Conditions
12:15 AM 39.2 °F 34.2 °F 26.6 °F 61% 30.00 in 10.0 mi SE 6.9 mph - N/A   Overcast
12:35 AM 39.2 °F 34.2 °F 26.6 °F 61% 29.99 in 10.0 mi SE 6.9 mph - N/A   Overcast
12:55 AM 39.2 °F 34.2 °F 26.6 °F 61% 29.98 in 10.0 mi SE 6.9 mph - N/A   Overcast
1:15 AM 39.2 °F 34.2 °F 24.8 °F 56% 29.98 in 10.0 mi SE 6.9 mph - N/A   Overcast
1:35 AM 39.2 °F 34.2 °F 24.8 °F 56% 29.98 in 10.0 mi ESE 6.9 mph - N/A   Overcast
1:55 AM 39.2 °F 35.0 °F 24.8 °F 56% 29.97 in 10.0 mi ESE 5.8 mph - N/A   Overcast
2:15 AM 39.2 °F 35.0 °F 24.8 °F 56% 29.97 in 10.0 mi ESE 5.8 mph - N/A   Overcast
2:35 AM 39.2 °F 34.2 °F 24.8 °F 56% 29.96 in 10.0 mi ESE 6.9 mph - N/A   Overcast
2:55 AM 39.2 °F 34.2 °F 24.8 °F 56% 29.95 in 10.0 mi ESE 6.9 mph - N/A   Overcast
3:15 AM 39.2 °F 33.0 °F 24.8 °F 56% 29.95 in 10.0 mi ESE 9.2 mph - N/A   Overcast
3:35 AM 39.2 °F 33.0 °F 24.8 °F 56% 29.93 in 10.0 mi ESE 9.2 mph - N/A   Overcast
3:55 AM 37.4 °F 30.3 °F 24.8 °F 60% 29.92 in 10.0 mi ESE 10.4 mph - N/A   Overcast
4:15 AM 37.4 °F 30.3 °F 24.8 °F 60% 29.92 in 10.0 mi ESE 10.4 mph - N/A   Overcast
4:35 AM 37.4 °F 31.4 °F 24.8 °F 60% 29.91 in 10.0 mi ESE 8.1 mph - N/A   Overcast
4:55 AM 37.4 °F 30.8 °F 26.6 °F 65% 29.91 in 10.0 mi ESE 9.2 mph - N/A   Light Drizzle
5:15 AM 37.4 °F 31.4 °F 26.6 °F 65% 29.92 in 10.0 mi ESE 8.1 mph - N/A   Overcast
5:35 AM 37.4 °F 32.1 °F 26.6 °F 65% 29.92 in 10.0 mi ESE 6.9 mph - N/A   Overcast
5:55 AM 37.4 °F 32.1 °F 26.6 °F 65% 29.92 in 10.0 mi ESE 6.9 mph - N/A   Drizzle
6:15 AM 37.4 °F 32.8 °F 28.4 °F 70% 29.93 in 10.0 mi ESE 5.8 mph - N/A   Drizzle
6:35 AM 35.6 °F 29.9 °F 30.2 °F 81% 29.92 in 10.0 mi SE 6.9 mph - N/A Rain Light Rain
6:55 AM 35.6 °F 29.9 °F 32.0 °F 87% 29.92 in 7.0 mi SE 6.9 mph - N/A Rain Light Rain
7:15 AM 35.6 °F 29.2 °F 32.0 °F 87% 29.91 in 7.0 mi SE 8.1 mph - N/A   Drizzle
7:35 AM 35.6 °F 29.2 °F 32.0 °F 87% 29.90 in 10.0 mi SE 8.1 mph - N/A   Drizzle
8:35 AM 35.6 °F 29.9 °F 32.0 °F 87% 29.90 in 7.0 mi SE 6.9 mph - N/A Rain Light Rain
8:55 AM 35.6 °F 30.7 °F 33.8 °F 93% 29.88 in 10.0 mi SE 5.8 mph - N/A   Light Drizzle
9:15 AM 37.4 °F 32.8 °F 33.8 °F 87% 29.87 in 10.0 mi SE 5.8 mph - N/A   Overcast
9:35 AM 37.4 °F 32.1 °F 33.8 °F 87% 29.87 in 10.0 mi SE 6.9 mph - N/A   Overcast
9:55 AM 37.4 °F 33.8 °F 33.8 °F 87% 29.86 in 10.0 mi SE 4.6 mph - N/A   Overcast
10:15 AM 39.2 °F 35.0 °F 35.6 °F 87% 29.86 in 10.0 mi SSE 5.8 mph - N/A   Overcast
10:35 AM 39.2 °F 33.6 °F 35.6 °F 87% 29.83 in 10.0 mi SE 8.1 mph - N/A   Light Drizzle
10:55 AM 41.0 °F 37.1 °F 37.4 °F 87% 29.82 in 10.0 mi SSE 5.8 mph - N/A Rain Light Rain
11:15 AM 42.8 °F 38.0 °F 39.2 °F 87% 29.81 in 10.0 mi SSE 8.1 mph - N/A   Overcast
11:35 AM 42.8 °F 39.3 °F 41.0 °F 93% 29.80 in 7.0 mi SSE 5.8 mph - N/A   Overcast
11:55 AM 42.8 °F 38.6 °F 41.0 °F 93% 29.77 in 4.0 mi SE 6.9 mph - N/A   Drizzle
12:15 PM 42.8 °F 37.5 °F 41.0 °F 93% 29.75 in 3.0 mi SE 9.2 mph - N/A   Drizzle
12:35 PM 42.8 °F 38.0 °F 42.8 °F 100% 29.75 in 2.5 mi SSE 8.1 mph - N/A   Drizzle
12:55 PM 42.8 °F 37.5 °F 42.8 °F 100% 29.73 in 2.0 mi SSE 9.2 mph - N/A   Drizzle
1:15 PM 42.8 °F 39.3 °F 42.8 °F 100% 29.72 in 2.0 mi SSE 5.8 mph - N/A Rain Rain
1:35 PM 42.8 °F 38.6 °F 42.8 °F 100% 29.71 in 3.0 mi SSE 6.9 mph - N/A Rain Rain
1:55 PM 44.6 °F 40.7 °F 42.8 °F 93% 29.69 in 4.0 mi SSE 6.9 mph - N/A Rain Rain
2:15 PM 44.6 °F 40.2 °F 44.6 °F 100% 29.67 in 5.0 mi SE 8.1 mph - N/A Rain Rain
2:35 PM 44.6 °F 42.2 °F 44.6 °F 100% 29.65 in 5.0 mi SE 4.6 mph - N/A Rain Rain
2:55 PM 44.6 °F 40.2 °F 44.6 °F 100% 29.63 in 5.0 mi SE 8.1 mph - N/A Rain Rain
3:15 PM 44.6 °F 40.7 °F 44.6 °F 100% 29.62 in 5.0 mi SE 6.9 mph - N/A Rain Rain
3:35 PM 44.6 °F 40.7 °F 44.6 °F 100% 29.61 in 7.0 mi SE 6.9 mph - N/A Rain Light Rain
3:55 PM 44.6 °F 40.7 °F 44.6 °F 100% 29.59 in 4.0 mi SE 6.9 mph - N/A Rain Rain
4:15 PM 44.6 °F - 44.6 °F 100% 29.59 in 3.0 mi Calm Calm - N/A Rain Rain
4:35 PM 44.6 °F 43.1 °F 44.6 °F 100% 29.58 in 7.0 mi ESE 3.5 mph - N/A Rain Rain
4:55 PM 44.6 °F - 44.6 °F 100% 29.57 in 7.0 mi Calm Calm - N/A Rain Light Rain
5:15 PM 44.6 °F - 44.6 °F 100% 29.56 in 5.0 mi Calm Calm - N/A Rain Light Rain
5:35 PM 44.6 °F - 44.6 °F 100% 29.55 in 5.0 mi Calm Calm - N/A Rain Light Rain
5:55 PM 44.6 °F - 44.6 °F 100% 29.55 in 3.0 mi Calm Calm - N/A Rain Rain
6:15 PM 44.6 °F 41.4 °F 44.6 °F 100% 29.56 in 2.0 mi West 5.8 mph - N/A Rain Rain
6:35 PM 44.6 °F 37.4 °F 44.6 °F 100% 29.56 in 7.0 mi West 16.1 mph 21.9 mph N/A Rain Light Rain
6:55 PM 42.8 °F 33.5 °F 42.8 °F 100% 29.58 in 5.0 mi WNW 23.0 mph 41.4 mph N/A Rain Rain
7:15 PM 37.4 °F 26.4 °F 35.6 °F 93% 29.62 in 5.0 mi WNW 23.0 mph 39.1 mph N/A Rain Rain
7:35 PM 33.8 °F 21.3 °F 33.8 °F 100% 29.65 in 2.5 mi WNW 24.2 mph 39.1 mph N/A   Overcast
7:55 PM 33.8 °F 21.9 °F 32.0 °F 93% 29.67 in 2.5 mi WNW 21.9 mph 35.7 mph N/A Snow Light Snow
8:15 PM 32.0 °F 19.5 °F 32.0 °F 100% 29.69 in 2.5 mi WNW 21.9 mph 33.4 mph N/A Snow Light Snow
8:35 PM 32.0 °F 21.2 °F 32.0 °F 100% 29.70 in 1.0 mi WNW 16.1 mph 32.2 mph N/A Snow Snow
8:55 PM 32.0 °F 21.6 °F 32.0 °F 100% 29.71 in 1.2 mi West 15.0 mph 27.6 mph N/A Snow Light Snow
9:15 PM 32.0 °F 20.8 °F 32.0 °F 100% 29.72 in 3.0 mi WNW 17.3 mph 24.2 mph N/A Snow Light Snow
9:35 PM 32.0 °F 20.5 °F 32.0 °F 100% 29.72 in 5.0 mi WNW 18.4 mph 33.4 mph N/A Snow Light Snow
9:55 PM 32.0 °F 21.2 °F 30.2 °F 93% 29.73 in 10.0 mi WNW 16.1 mph 34.5 mph N/A Snow Light Snow
10:15 PM 32.0 °F 20.1 °F 30.2 °F 93% 29.73 in 7.0 mi West 19.6 mph 36.8 mph N/A Snow Light Snow
10:35 PM 32.0 °F 19.8 °F 28.4 °F 87% 29.73 in 5.0 mi WNW 20.7 mph 36.8 mph N/A Snow Light Snow
10:55 PM 32.0 °F 21.6 °F 30.2 °F 93% 29.74 in 4.0 mi WNW 15.0 mph 23.0 mph N/A Snow Light Snow
11:15 PM 32.0 °F 19.8 °F 28.4 °F 87% 29.74 in 3.0 mi WNW 20.7 mph 28.8 mph N/A Snow Light Snow
11:35 PM 32.0 °F 22.1 °F 28.4 °F 87% 29.74 in 2.5 mi West 13.8 mph 27.6 mph N/A Snow Light Snow
11:55 PM 30.2 °F 16.8 °F 28.4 °F 93% 29.74 in 2.0 mi WNW 23.0 mph 32.2 mph N/A Snow Light Snow